Simultaneous Nadir Overpasses (SNOs) Predictions

Prediction of SNOs between LANDSAT-8 and TERRA Satellite Orbit:

Table of predicted SNOs for the next 14.0 days since TLE Epoch: 11/30/2024
Index Date (LANDSAT-8) Time (LANDSAT-8) Lat,Lon (LANDSAT-8) SZA (LANDSAT-8 ) Date (TERRA) Time (TERRA) Lat,Lon (TERRA) SZA (TERRA ) Distance(km) Time Diff (sec)
1 12/09/2024 16:09:29 81.82, 4.01 109.65 12/09/2024 16:10:41 81.82, 3.82 109.67 3.07 72
2 12/09/2024 16:58:56 -81.82, 171.53 70.36 12/09/2024 17:00:00 -81.82, 171.61 70.32 1.33 64
3 12/09/2024 17:48:22 81.82, -20.73 109.66 12/09/2024 17:49:21 81.82, -20.79 109.68 0.95 59
4 12/09/2024 18:37:48 -81.82, 147.22 70.31 12/09/2024 18:38:40 -81.82, 147.01 70.31 3.31 52
5 12/09/2024 19:27:15 81.82, -45.47 109.66 12/09/2024 19:28:01 81.82, -45.39 109.69 1.18 46
6 12/09/2024 20:16:41 -81.82, 122.48 70.31 12/09/2024 20:17:20 -81.81, 122.40 70.30 1.22 39
7 12/09/2024 21:06:08 81.82, -70.21 109.66 12/09/2024 21:06:41 81.82, -70.00 109.70 3.30 33
8 12/09/2024 21:55:34 -81.82, 97.73 70.30 12/09/2024 21:56:00 -81.81, 97.79 70.28 0.99 26
9 12/09/2024 22:45:00 81.82, -94.52 109.72 12/09/2024 22:45:21 81.81, -94.61 109.72 1.38 21
10 12/09/2024 23:34:27 -81.82, 72.99 70.30 12/09/2024 23:34:40 -81.81, 73.18 70.27 3.08 13
11 12/10/2024 00:23:53 81.82,-119.27 109.72 12/10/2024 00:24:01 81.81,-119.22 109.73 0.79 8
12 12/10/2024 01:13:20 -81.82, 48.25 70.30 12/10/2024 01:13:21 -81.82, 48.16 70.31 1.61 1
13 12/10/2024 02:02:46 81.82,-144.01 109.72 12/10/2024 02:02:41 81.81,-143.83 109.74 2.89 5
14 12/10/2024 02:52:13 -81.82, 23.51 70.30 12/10/2024 02:52:01 -81.82, 23.55 70.30 0.71 12
15 12/10/2024 03:41:39 81.82,-168.75 109.72 12/10/2024 03:41:22 81.82,-168.86 109.70 1.84 17
16 12/10/2024 04:31:06 -81.82, -1.23 70.29 12/10/2024 04:30:41 -81.82, -1.06 70.29 2.72 25
17 12/10/2024 05:20:32 81.82, 166.51 109.73 12/10/2024 05:20:02 81.82, 166.53 109.71 0.62 30
18 12/10/2024 06:09:58 -81.81, -25.55 70.24 12/10/2024 06:09:21 -81.82, -25.67 70.27 1.96 37
19 12/10/2024 06:59:24 81.81, 142.19 109.78 12/10/2024 06:58:41 81.80, 142.34 109.77 2.51 43
20 12/10/2024 07:48:51 -81.81, -50.29 70.24 12/10/2024 07:48:01 -81.81, -50.28 70.26 0.20 50
21 12/10/2024 08:38:17 81.81, 117.45 109.78 12/10/2024 08:37:22 81.82, 117.31 109.74 2.20 55
22 12/10/2024 09:27:44 -81.81, -75.03 70.24 12/10/2024 09:26:41 -81.81, -74.89 70.25 2.28 63



Historial Predications of SNOs between LANDSAT-8 and TERRA
